Location: Holcomb Observatory and Planetarium
(39.8415°N, 86.1714°W)
Time: 19:54:42
(UTC-04:00)

ISS - Visible Passes

Search period start: 19 September 2014 00:00
Search period end: 29 September 2014 00:00
Orbit: 414 x 417 km, 51.6° (Epoch: 19 September)

Date Brightness Start Highest point End Pass type
(mag) Time Alt. Az. Time Alt. Az. Time Alt. Az.
19 Sep -1.2 05:42:09 18° NNW 05:42:09 18° NNW 05:44:23 10° NNE visible
20 Sep -0.1 04:55:19 13° NNE 04:55:19 13° NNE 04:55:47 10° NNE visible
20 Sep -0.6 06:29:25 10° NNW 06:30:35 11° N 06:31:45 10° NNE visible
21 Sep -0.7 05:41:17 13° NNW 05:41:26 13° N 05:43:01 10° NNE visible
22 Sep -0.5 06:29:01 10° NNW 06:30:06 11° N 06:31:10 10° NNE visible
23 Sep -0.4 05:40:17 11° NNW 05:40:51 11° N 05:41:50 10° NNE visible
24 Sep -0.6 06:27:35 10° NNW 06:29:25 14° NNE 06:31:15 10° NE visible
25 Sep -0.5 05:39:15 11° N 05:40:08 12° N 05:41:30 10° NNE visible
26 Sep -1.0 06:25:50 10° NNW 06:28:29 21° NNE 06:31:07 10° ENE visible
27 Sep -0.8 05:38:21 15° N 05:39:11 16° NNE 05:41:24 10° ENE visible
28 Sep 0.3 04:51:33 10° NE 04:51:33 10° NE 04:51:33 10° NE visible
28 Sep -2.1 06:24:26 13° NW 06:27:12 42° NNE 06:30:23 10° ESE visible
